User: anonymous   Login
Location: Unspecified
(0.0000°N, 0.0000°E)
Time: 18:30:59
(UTC+00:00)
Language:

Explorer 7 - Orbit

View from above orbital plane
View from above orbital plane
View from above satellite
View from above satellite

Ground track
Ground track

The orbit data is extracted from the following two-line orbital elements,

1    22U 59009A   19107.90939783 +.00000249 +00000-0 +42121-4 0  9992
2    22 050.2837 302.9334 0140407 069.4397 292.1550 14.94831292406567
Epoch (UTC): 17 April 2019 21:49:31
Eccentricity: 0.0140407
inclination: 50.2837°
perigee height: 485 km
apogee height: 680 km
right ascension of ascending node: 302.9334°
argument of perigee: 69.4397°
revolutions per day: 14.94831292
mean anomaly at epoch: 292.1550°
orbit number at epoch: 40656

The dashed part of the orbit path shows where the satellite is in the earth's shadow,  

DLR